Regional Weather Roundup
Issued by NWS Little Rock, AR

Home | Current Version | Previous Version | Text Only | Print | Product List | Glossary Off
Versions: 1 2 3 4 5 6 7 8 9 10 11 12 13 14 15 16 17 18 19 20 21 22 23 24 25 26 27

000
ASUS44 KLZK 240405
RWRLZK

WEATHER ROUNDUP FOR ARKANSAS
NATIONAL WEATHER SERVICE LITTLE ROCK AR
1100 PM CDT TUE AUG 23 2016

NOTE: "FAIR" INDICATES FEW OR NO CLOUDS BELOW 12,000 FEET WITH NO
SIGNIFICANT WEATHER AND/OR OBSTRUCTIONS TO VISIBILITY.

ARZ001-003-010-029-240500-
NORTHWEST ARKANSAS

CITY           SKY/WX    TMP DP  RH WIND       PRES   REMARKS
FAYETTEVILLE   CLEAR     77  71  82 S15G21    30.09S
FORT SMITH     CLOUDY    80  71  74 E5        30.07R
HARRISON       CLEAR     75  70  84 S8        30.12S
BENTONVILLE    CLEAR     79  66  65 S10       30.09S
ROGERS         CLEAR     76  69  79 S9        30.10R
SILOAM SPGS    CLEAR     79  64  61 S12       30.10R
HIGHFILL       CLEAR     78  71  79 S12       30.08R
$$

ARZ004-005-016-240500-
NORTH CENTRAL ARKANSAS

CITY           SKY/WX    TMP DP  RH WIND       PRES   REMARKS
BATESVILLE     CLEAR     79  73  83 E5        30.12S
FLIPPIN        CLEAR     77  70  78 S3        30.09S
MTN HOME       CLEAR     75  72  90 S3        30.11S
$$

ARZ040-041-240500-
WEST CENTRAL ARKANSAS

CITY           SKY/WX    TMP DP  RH WIND       PRES   REMARKS
MENA           CLEAR     82  77  83 S5        30.13S HX  91
MOUNT IDA      CLEAR     75  73  93 CALM      30.11S
$$

ARZ009-017-025-026-028-240500-
NORTHEAST ARKANSAS

CITY           SKY/WX    TMP DP  RH WIND       PRES   REMARKS
CORNING          N/A     75  75 100 S6        30.11S
JONESBORO      CLEAR     79  74  84 S9        30.11S
NEWPORT        CLEAR     78  75  90 S9        30.11S
WALNUT RIDGE   CLEAR     77  72  83 S8        30.11R
BLYTHEVILLE    CLOUDY    79  76  90 S6        30.13S
$$

ARZ022-023-033-042-044-240500-
CENTRAL ARKANSAS

CITY           SKY/WX    TMP DP  RH WIND       PRES   REMARKS
LITTLE ROCK    CLEAR     82  75  79 S10       30.12R HX  89
N LITTLE ROCK    N/A     81  75  80 S7        30.09R HX  87
SEARCY         CLEAR     78  77  96 S5        30.13S
HOT SPRINGS    CLEAR     81  74  79 SE5       30.13R HX  86
RUSSELLVILLE   PTCLDY    79  73  82 CALM      30.10R
$$

ARZ036-240500-
EAST ARKANSAS

CITY           SKY/WX    TMP DP  RH WIND       PRES   REMARKS
WEST MEMPHIS   CLEAR     76  74  93 S3        30.13R
$$

ARZ050-053-066-070-073-240500-
SOUTHWEST ARKANSAS

CITY           SKY/WX    TMP DP  RH WIND       PRES   REMARKS
ARKADELPHIA    FAIR      79  77  94 CALM      30.13R
CAMDEN           N/A     77  73  88 SE3       30.13R
TEXARKANA      CLEAR     81  76  84 S8        30.13R HX  87
EL DORADO      CLEAR     79  77  94 SE3       30.15R
DE QUEEN       CLEAR     80  76  87 SE3       30.09R HX  86
$$

ARZ056-057-069-240500-
SOUTHEAST ARKANSAS

CITY           SKY/WX    TMP DP  RH WIND       PRES   REMARKS
PINE BLUFF     CLEAR     78  75  90 S6        30.13R
STUTTGART      CLEAR     79  73  83 S7        30.13S
MONTICELLO     CLEAR     82  76  81 CALM      30.14R HX  89

$$






USA.gov is the U.S. government's official web portal to all federal, state and local government web resources and services.